Regional Weather Roundup
Issued by NWS Midland/Odessa, TX

Skip options and go directly to product.
Home | Oldest Version | Previous Version | Current Version | All | Text Only | Save Text | Print | Product List | Glossary Off

Skip product version selection by date and time.   

302
ASUS44 KMAF 292110
RWRMAF
MIDLAND AREA WEATHER ROUNDUP
NATIONAL WEATHER SERVICE MIDLAND TX
400 PM CDT WED JUN 29 2016

...IN SOUTHWEST TEXAS AND SOUTHEAST NEW MEXICO...

CITY           SKY/WX    TMP DP  RH WIND       PRES   REMARKS
ALPINE         CLOUDY    80  58  47 SE13      30.24S
ANDREWS        FAIR      90  55  30 SE9       30.10F
ARTESIA        SUNNY     93  55  27 SE13      30.09F
BIG SPRING     SUNNY     90  60  36 E7        30.09F
CARLSBAD       MOSUNNY   91  57  31 SE7       30.07F
DRYDEN           N/A     93  63  36 NE8       30.02F
FORT STOCKTON  MOSUNNY   93  57  29 E14G20    30.08F
GUAD PASS      SUNNY     80  55  42 E9        30.26F
HOBBS          MOSUNNY   91  50  24 SE7       30.12F
MARFA          CLOUDY   N/A N/A N/A SW12      30.22F
MIDLAND AIRPK  SUNNY     92  56  30 SE9       30.08F
MIDLAND INTL   SUNNY     91  57  31 SE10      30.08F
ODESSA         SUNNY     92  56  29 E13       30.09F
PECOS          SUNNY     94  55  26 E8        30.05F
PRESIDIO       MOCLDY    95  56  27 NE9       30.02F
SEMINOLE       MOSUNNY   92  52  25 CALM      30.11F
SNYDER           N/A     89  64  44 SW5       30.08F
WINK           SUNNY     93  57  29 SE9G18    30.05F
$$
...OTHER STATIONS IN TEXAS...

CITY           SKY/WX    TMP DP  RH WIND       PRES   REMARKS
ABILENE        MOSUNNY   91  68  46 SE5       30.04F
AMARILLO       SUNNY     95  54  25 VRB5      30.10F
AUSTIN         MOSUNNY   94  67  41 NE12      29.95F
BROWNSVILLE    CLOUDY    91  77  63 E13       29.92F HX 104
CORPUS CHRISTI PTSUNNY   95  72  47 NE18G24   29.91F THUNDER HX 103
DALLAS FTW     PTSUNNY   94  63  35 E6        29.99S
DEL RIO        SUNNY     97  64  33 N8        29.94F
EL PASO        MOSUNNY   92  49  22 E9        30.09F
HOUSTON INT    MOSUNNY   93  74  53 NE9       29.92F HX 103
LUBBOCK        MOSUNNY   92  55  28 VRB7      30.11F
SAN ANGELO     MOSUNNY   90  67  46 E6        30.04F
SAN ANTONIO    MOSUNNY   91  64  40 E10       29.96F
WACO           MOSUNNY   93  68  43 NE12      29.97F
WICHITA FALLS  NOT AVBL
$$
...OTHER LOCATIONS IN NEW MEXICO...

CITY           SKY/WX    TMP DP  RH WIND       PRES   REMARKS
ALAMAGORDO     SUNNY     91  52  25 S9        30.13F
ALBUQUERQUE    MOSUNNY   88  46  23 S9        30.21F
CANNON AFB     MOSUNNY   92  56  30 SE9G20    30.14F
CLOVIS         PTSUNNY   88  55  33 S5        30.14F
HOLLOMAN AFB   SUNNY     91  53  26 VRB6      30.10F
ROSWELL        MOSUNNY   95  48  20 S8        30.09F
RUIDOSO        LGT RAIN  81  43  26 SE10      30.34F
SANTA FE       MOSUNNY   88  44  21 N14       30.27F
TRUTH OR CONSE MOSUNNY   91  48  22 S12       30.15F
TUCUMCARI      SUNNY     96  47  18 SW9       30.09F
$$

USA.gov is the U.S. government's official web portal to all federal, state and local government web resources and services.